Flag for Moldova Weather past 2 weeks in Tiraspol, Moldova

Now
68 °F

Sunny.


Feels Like: 68 °F
Forecast: 50 / 59 °F
Wind: 12 mph from Southwest

Location: Chisinau International Airport

Current Time: Oct 20, 2014 at 5:00:32 PM

Latest Report: Oct 20, 2014 at 4:30 PM


Visibility: 10 mi

Pressure: 29.89 "Hg

Humidity: 35%

Dew point: 39 °F

Location of TiraspolLocation

Historic Weather in Tiraspol — Graph

°F

Tiraspol temperature yesterday

Maximum temperature yesterday: 54 °F (at 3:30 PM)
Minimum temperature yesterday: 30 °F (at 4:00 AM)
Average temperature yesterday: 42 °F

Past Weeks' High & Low Weather Summary

 TemperatureHumidityPressure
High77 °F (Oct 15, 3:00 PM)93% (Oct 10, 7:30 AM)30.42 "Hg (Oct 10, 7:30 AM)
Low30 °F (Oct 19, 4:00 AM)20% (Oct 12, 4:00 PM)29.68 "Hg (Oct 16, 5:00 AM)
Average54 °F61%30.12 "Hg
* Reported Oct 5 4:00 PM — Oct 20 4:00 PM, Tiraspol, Weather by CustomWeather, © 2014

Note: Actual official high and low records may vary slightly from our data, if they occured in-between our weather recording intervals... More about our weather records

Advertising

Tiraspol weather history for previous 24 hours

 ConditionsComfort  
Time TempWeatherWind HumidityBarometerVisibility
4:00 PM
Oct 20
70 °FSunny.10 mph35%29.92 "Hg10 mi
3:30 PM68 °FPassing clouds.10 mph35%29.92 "HgN/A
3:00 PM66 °FPassing clouds.9 mph40%29.92 "HgN/A
2:30 PM66 °FPassing clouds.9 mph40%29.92 "HgN/A
2:00 PM64 °FSunny.10 mph43%29.95 "Hg10 mi
1:30 PM63 °FSunny.9 mph45%29.98 "Hg10 mi
1:00 PM61 °FPassing clouds.8 mph48%29.98 "HgN/A
12:30 PM59 °FPassing clouds.9 mph51%30.01 "HgN/A
12:00 PM57 °FSunny.8 mph55%30.01 "Hg10 mi
11:30 AM54 °FSunny.9 mph58%30.01 "Hg10 mi
11:00 AM54 °FPassing clouds.7 mph58%30.04 "HgN/A
10:30 AM50 °FPassing clouds.7 mph67%30.04 "HgN/A
10:00 AM50 °FSunny.8 mph67%30.04 "Hg10 mi
9:30 AM46 °FPassing clouds.8 mph71%30.04 "HgN/A
9:00 AM45 °FPassing clouds.6 mph76%30.07 "HgN/A
8:30 AM41 °FPassing clouds.3 mph81%30.07 "HgN/A
8:00 AM41 °FClear.3 mph81%30.07 "Hg10 mi
6:30 AM41 °FClear.6 mph81%30.09 "Hg10 mi
6:00 AM41 °FClear.6 mph81%30.09 "Hg10 mi
5:30 AM41 °FPassing clouds.5 mph81%30.09 "HgN/A
5:00 AM41 °FClear.5 mph76%30.12 "Hg10 mi
4:30 AM41 °FClear.8 mph76%30.12 "Hg10 mi
4:00 AM43 °FPassing clouds.7 mph71%30.12 "HgN/A
3:30 AM43 °FPassing clouds.7 mph66%30.15 "HgN/A
3:00 AM41 °FPassing clouds.8 mph66%30.18 "HgN/A
2:30 AM41 °FClear.8 mph61%30.18 "Hg10 mi
2:00 AM41 °FClear.5 mph61%30.21 "Hg10 mi
1:30 AM41 °FClear.8 mph61%30.21 "Hg10 mi
1:00 AM43 °FPassing clouds.5 mph57%30.24 "HgN/A
12:30 AM43 °FClear.10 mph53%30.24 "Hg10 mi
12:00 AM41 °FClear.12 mph57%30.24 "Hg10 mi
11:30 PM
Oct 19
41 °FClear.10 mph57%30.27 "Hg10 mi
11:00 PM41 °FClear.8 mph57%30.27 "Hg10 mi
10:30 PM41 °FClear.6 mph57%30.27 "Hg10 mi
10:00 PM43 °FClear.6 mph53%30.30 "Hg10 mi
9:30 PM43 °FPassing clouds.3 mph49%30.30 "HgN/A
9:00 PM45 °FClear.6 mph42%30.30 "Hg10 mi
8:30 PM45 °FPassing clouds.5 mph42%30.30 "HgN/A
8:00 PM45 °FClear.7 mph39%30.30 "Hg10 mi
7:30 PM45 °FClear.8 mph39%30.33 "Hg10 mi
7:00 PM46 °FSunny.6 mph37%30.33 "Hg10 mi
6:30 PM48 °FSunny.6 mph37%30.33 "Hg10 mi
6:00 PM50 °FSunny.3 mph32%30.33 "Hg10 mi
5:30 PM54 °FSunny.5 mph28%30.33 "Hg10 mi
5:00 PM54 °FPassing clouds.3 mph28%30.33 "HgN/A
Weather by CustomWeather, © 2014

See weather overviewHow to use our weather pages